Wind_Speed
24 23 23 22 20 19 19 20 20 21 21 22 22 23 24 24 25 25 25 24 23 23 23 23 23 23 22 20 18 17 16 16 17 17 20 18 16 14 11 12 11 10 11 10 10 10 9 9 9 9 9 8 7 9 9 7 7 5 3 4 2 3 4 6 7 7 4 2 6 10 16 12 5 8 10 6 5 5 9 12 9 11 14 10 6 4 11 18
25 24 24 22 21 20 20 20 21 21 21 21 21 22 23 23 24 24 24 23 22 22 23 23 22 22 20 18 17 16 15 14 15 19 20 16 14 14 12 13 12 11 11 10 10 10 9 9 10 11 10 8 7 9 9 6 6 4 3 3 3 6 5 6 8 9 3 1 8 11 15 13 6 10 12 5 4 6 7 9 9 11 14 13 10 8 12 18
26 25 25 23 22 22 21 21 22 22 22 21 21 21 22 22 22 23 23 22 22 22 22 22 21 21 19 18 17 15 14 12 15 20 19 16 15 14 14 14 12 11 11 10 11 10 10 9 9 11 10 7 6 8 8 5 5 2 4 3 4 6 4 5 6 7 5 2 9 12 12 11 7 10 12 6 4 5 7 10 11 13 15 14 12 10 13 18
26 25 25 24 24 24 23 23 23 22 22 22 21 21 21 21 21 21 21 21 21 21 21 21 20 20 18 17 16 14 11 7 14 20 17 16 15 14 15 15 13 11 11 11 11 11 10 9 10 11 8 5 5 8 6 4 5 2 5 3 5 5 1 3 4 4 6 5 9 11 9 7 8 11 11 8 5 3 11 17 16 15 15 15 14 13 15 19
26 24 25 25 25 25 25 25 24 24 23 22 22 21 21 20 20 20 20 21 20 20 20 20 19 18 17 16 15 13 8 1 9 18 16 16 16 15 15 15 14 12 12 12 11 11 11 10 11 10 6 3 4 5 4 4 6 3 2 2 4 6 2 1 2 3 7 8 9 11 8 7 9 10 11 11 7 6 11 16 17 17 15 14 15 14 16 20
26 25 25 25 26 26 26 26 25 25 24 23 22 21 21 20 21 20 20 20 19 19 19 18 18 17 16 16 15 14 12 2 3 12 16 17 17 16 15 15 15 13 13 12 12 12 11 11 12 9 5 3 3 3 3 6 5 3 1 1 5 6 2 1 1 2 5 9 13 13 9 8 9 7 9 14 15 11 6 7 11 15 16 14 15 15 17 20
25 25 25 24 25 26 27 27 26 26 25 24 23 22 22 21 21 20 20 20 19 18 17 17 16 16 16 15 16 15 16 10 2 7 16 17 17 17 16 15 14 14 14 13 14 14 11 12 12 8 5 3 2 2 4 7 4 3 1 2 5 4 1 2 1 2 4 9 13 13 9 7 8 6 5 13 21 16 9 5 5 10 15 16 16 16 17 17
24 24 25 24 24 26 27 28 27 27 26 26 24 23 22 21 21 20 20 19 18 17 15 16 15 16 16 15 16 13 17 18 6 4 14 17 17 18 17 15 14 14 14 13 13 14 12 12 12 9 4 1 4 4 6 6 2 2 3 4 5 3 2 3 4 5 5 7 10 10 7 4 6 5 5 13 19 16 16 14 9 8 13 18 18 17 18 18
23 24 24 24 24 26 27 28 28 28 27 27 26 24 23 22 21 20 19 18 17 15 15 15 15 16 15 15 15 9 15 20 10 3 10 17 17 17 17 14 13 14 14 13 13 14 12 11 13 10 3 3 6 5 7 6 1 2 5 6 6 3 3 4 4 6 7 8 9 8 3 1 3 3 8 15 17 14 16 17 16 12 11 16 20 19 18 19
24 24 25 24 24 25 26 27 28 28 28 27 26 25 24 22 21 20 19 17 16 15 14 14 15 15 15 16 13 7 13 19 14 7 7 15 18 16 16 14 13 14 14 14 14 14 13 12 13 10 3 5 7 4 6 4 2 6 10 9 6 4 4 3 4 5 6 7 6 6 2 1 2 1 6 8 7 10 14 15 17 16 12 13 18 20 20 19
23 24 25 24 24 25 26 27 27 27 27 27 26 25 24 22 21 19 18 16 15 15 14 14 15 15 14 16 13 8 12 15 14 11 7 12 17 16 15 14 12 13 13 13 13 13 12 10 12 10 3 5 7 4 4 3 3 11 14 9 6 4 3 3 3 4 4 4 3 5 1 2 2 2 9 9 3 3 8 13 15 17 15 12 14 18 20 20
22 24 24 24 24 25 25 26 26 26 26 26 25 25 24 22 20 19 17 16 15 14 14 14 14 15 14 15 16 14 11 10 11 10 8 12 17 17 15 13 12 12 12 12 11 11 10 10 12 10 4 7 8 3 4 5 7 10 9 4 5 6 3 2 2 2 2 2 2 5 1 4 3 8 12 10 9 6 5 10 14 17 18 15 14 16 19 19
21 23 24 24 24 24 25 26 26 26 26 25 25 24 23 22 20 18 17 15 15 14 13 14 13 14 13 11 16 18 12 8 9 9 8 12 16 16 15 13 12 12 12 11 9 9 9 9 10 10 8 9 6 5 7 6 7 5 4 4 2 6 3 3 2 2 3 2 3 5 1 6 8 14 13 9 10 9 7 9 12 15 18 18 18 18 19 20
21 22 23 24 24 24 25 25 26 26 26 25 25 25 23 22 20 18 17 15 14 13 13 13 12 13 13 10 12 17 17 10 8 9 9 12 15 15 15 13 12 11 11 11 9 9 9 7 8 9 8 8 8 10 7 5 4 2 2 2 2 1 4 5 2 2 5 2 2 6 2 6 9 10 9 11 13 12 11 11 11 13 15 18 20 21 23 22
20 21 22 23 24 24 24 25 26 26 26 26 25 25 23 22 21 19 17 15 13 13 12 12 12 12 10 10 10 13 18 15 9 9 10 11 14 14 14 13 12 10 10 11 10 10 9 7 8 8 8 10 12 10 4 4 4 3 2 1 3 3 5 7 2 2 4 2 2 6 2 6 9 7 1 4 8 11 14 14 14 16 16 17 19 21 24 24
20 21 22 23 24 24 24 25 26 26 27 26 25 24 22 21 21 19 17 15 13 12 12 11 13 12 6 6 10 10 15 16 11 10 11 12 13 13 14 13 11 10 10 11 10 10 10 9 8 8 9 9 8 6 4 3 3 4 3 2 1 3 3 5 2 2 2 2 1 2 2 4 4 5 2 3 0 3 7 11 11 13 15 16 17 19 21 23
19 20 22 23 24 24 25 25 25 27 27 26 24 23 21 20 19 19 17 15 13 12 12 11 13 12 5 6 9 9 13 16 13 12 13 14 13 12 14 13 11 10 10 11 11 11 10 9 8 6 5 4 3 5 5 0 3 2 2 2 2 3 2 2 2 3 4 2 1 2 2 7 7 8 8 6 6 7 9 12 11 11 12 13 15 17 19 21
19 19 21 23 24 24 25 24 25 26 26 25 23 21 20 18 18 18 17 15 14 12 10 11 12 8 7 9 8 7 12 15 13 13 14 15 13 12 14 12 11 11 12 11 9 9 8 5 6 3 2 3 2 5 5 5 5 5 3 2 2 2 2 3 2 2 4 2 1 1 3 9 11 13 18 18 13 12 15 17 18 18 17 17 17 19 20 21
20 19 20 22 23 24 24 24 25 25 25 25 23 22 19 18 16 16 17 18 16 9 5 12 16 6 3 10 11 8 12 15 14 15 15 15 13 14 13 11 12 13 12 8 5 6 5 4 4 3 2 3 5 6 7 8 8 8 6 5 4 3 4 5 4 4 2 2 3 5 6 8 11 11 17 22 15 12 17 19 21 23 23 24 24 25 25 25
21 18 19 21 22 24 23 25 25 25 26 25 25 23 18 17 11 8 16 19 15 6 2 14 21 6 6 6 16 12 12 15 16 17 16 15 15 15 13 11 12 10 7 5 3 3 4 4 3 5 6 7 8 6 6 5 6 7 6 4 4 4 3 3 3 5 2 3 3 4 4 8 12 11 15 25 19 13 18 21 25 27 26 28 28 30 30 30
22 18 19 20 22 23 22 24 25 25 25 24 28 25 19 21 11 6 15 13 11 7 5 12 24 12 4 3 15 14 13 14 15 17 16 15 17 14 10 9 8 4 1 3 4 2 4 5 6 6 7 7 6 6 7 6 6 6 6 5 2 2 3 2 1 5 3 1 2 3 5 9 12 11 16 21 16 13 20 22 25 28 28 30 31 32 33 32
22 19 18 19 21 22 22 24 24 25 26 24 31 25 19 25 16 13 18 8 10 12 3 8 21 18 4 1 12 14 12 10 11 17 17 17 18 12 8 7 5 3 1 2 5 2 2 4 7 6 6 7 6 6 8 7 7 5 4 5 2 2 3 3 2 4 4 0 3 4 5 10 11 11 15 19 16 18 23 24 26 28 29 33 34 34 34 33
23 20 18 17 19 21 22 24 23 25 27 28 32 24 18 24 15 13 18 7 8 15 8 8 16 21 12 5 11 13 10 8 9 16 18 18 17 11 9 7 4 4 2 3 6 5 4 5 6 8 9 9 6 4 8 7 5 4 4 5 3 2 1 2 2 4 4 2 1 3 5 8 8 7 12 17 17 19 23 25 28 28 30 33 33 32 32 31
25 22 20 18 18 19 21 23 23 25 28 29 31 23 19 24 16 13 13 4 2 10 10 9 12 21 18 9 11 12 10 8 10 17 19 19 17 10 8 7 5 4 3 4 7 7 5 4 3 9 7 7 7 3 5 6 2 1 3 6 4 3 4 3 1 2 3 3 3 3 5 7 5 5 8 8 7 10 14 17 22 23 25 26 26 25 24 22
27 24 22 20 18 19 20 22 24 26 28 30 30 23 20 23 17 15 10 4 1 4 7 9 8 15 18 12 12 13 10 8 10 17 20 19 18 10 5 6 5 3 3 4 6 5 5 2 7 9 4 5 8 3 5 7 3 2 3 6 6 7 6 2 2 3 4 4 4 4 3 6 5 5 8 6 6 8 9 9 17 21 19 20 22 22 20 17
29 26 23 22 21 20 20 20 23 26 28 30 30 23 22 22 18 17 9 5 2 2 5 10 7 10 16 12 13 14 7 6 10 17 21 19 18 12 6 4 2 2 5 5 4 2 1 2 5 7 6 6 7 4 5 6 6 2 4 5 6 7 7 6 4 4 1 2 3 4 2 5 7 6 8 6 7 10 10 9 16 21 18 16 19 20 19 18
33 29 24 24 23 23 22 19 22 27 27 29 30 24 23 23 19 16 7 6 3 4 6 9 8 11 14 13 18 14 3 5 9 14 20 19 16 12 6 3 2 2 4 4 2 2 2 3 4 5 6 6 6 5 6 7 7 3 3 5 8 7 7 6 6 4 2 3 4 4 4 2 6 6 6 5 6 10 11 10 14 18 18 17 17 18 17 15
34 30 25 25 23 22 21 18 23 30 27 27 30 26 23 24 20 13 6 3 3 4 6 6 8 12 14 17 20 11 5 10 9 8 18 19 14 9 4 5 5 4 2 5 4 3 2 4 4 6 5 4 5 5 6 10 6 3 3 6 6 7 7 5 6 4 1 1 4 4 2 1 6 7 5 5 4 8 10 11 12 16 17 15 14 15 15 12
32 29 25 24 22 20 19 19 22 27 25 26 30 26 23 24 17 8 4 1 2 3 4 8 9 11 14 17 14 7 7 8 4 8 17 16 12 7 3 6 8 7 3 3 5 2 2 3 5 6 5 5 3 1 2 6 3 4 6 7 6 6 6 5 5 4 3 2 5 5 0 1 5 8 4 2 3 7 9 9 9 12 12 11 9 7 8 11
29 28 25 24 23 21 20 19 20 22 24 29 30 27 27 21 11 6 2 3 2 2 3 8 8 9 13 12 4 2 5 2 4 12 13 10 10 7 7 7 8 7 3 5 4 1 2 1 0 3 3 5 5 4 4 3 6 10 7 7 7 7 5 4 3 4 3 2 6 6 2 0 3 7 5 4 5 6 5 6 8 10 10 10 7 3 3 8
27 26 25 25 24 22 21 20 22 24 28 31 30 29 26 12 4 4 5 3 2 2 3 3 4 7 14 12 5 3 3 2 5 11 8 4 6 6 7 6 4 5 2 3 1 3 4 3 0 1 2 5 7 6 7 5 7 8 4 5 5 4 4 4 4 3 2 4 6 4 2 1 4 6 5 5 7 6 5 5 7 9 10 9 8 7 5 9
26 24 23 24 23 21 20 22 25 28 30 31 32 31 20 5 1 5 4 3 2 3 4 5 4 6 11 10 6 5 4 2 3 7 5 4 5 5 4 5 4 3 0 3 1 3 3 0 2 2 1 5 5 5 5 4 3 5 5 6 5 2 3 2 3 1 3 6 4 2 1 2 6 8 8 11 12 7 6 8 9 10 10 8 7 6 7 10
24 23 23 24 22 20 20 22 27 31 33 34 33 24 9 2 7 8 5 3 2 2 5 5 2 4 9 8 5 4 4 2 4 4 3 3 4 4 2 2 6 5 2 4 3 1 2 4 2 2 1 5 5 5 4 1 1 4 6 6 4 3 2 2 4 2 3 4 3 3 2 3 5 6 9 14 13 7 6 10 11 10 10 9 7 4 5 9
22 23 25 24 21 20 21 25 30 33 36 37 27 13 5 5 8 8 7 5 2 1 3 3 5 5 7 5 4 5 3 1 4 4 3 4 5 5 4 4 4 5 4 4 3 5 4 4 3 3 2 4 4 3 6 6 3 3 3 5 5 5 5 4 4 3 4 3 3 3 2 3 3 3 6 12 14 13 13 15 16 15 14 12 10 4 1 6
22 24 24 23 23 23 24 29 33 34 38 33 17 7 8 9 6 7 8 4 1 2 3 3 7 7 5 1 1 4 2 1 3 4 4 5 6 7 7 6 5 4 6 5 3 3 3 4 4 2 1 5 4 2 4 6 2 2 2 5 3 4 5 3 3 5 3 1 2 2 3 5 4 6 9 9 11 12 11 13 16 19 17 13 11 7 3 5
23 24 24 25 27 23 24 32 32 32 36 25 10 6 9 8 4 5 6 5 5 6 7 4 4 5 4 1 0 5 0 2 4 3 3 4 3 6 7 5 7 6 6 6 3 2 2 3 4 4 2 3 2 2 2 3 3 2 2 3 5 4 7 6 2 1 3 1 3 1 4 6 4 6 9 6 8 10 8 8 10 14 14 13 12 9 6 6
26 26 26 27 26 20 23 30 28 30 29 16 8 9 6 4 4 3 5 7 9 10 10 5 1 4 6 3 4 7 2 3 4 3 4 3 2 6 7 5 7 10 7 4 2 3 5 2 4 2 1 2 2 2 4 4 3 4 3 5 4 3 5 5 2 3 4 2 4 1 5 5 2 4 7 5 3 8 9 8 6 8 10 12 13 10 7 6
29 28 26 24 22 21 24 26 25 27 20 8 8 9 3 2 3 2 5 8 10 9 7 5 3 3 6 6 5 7 6 4 5 4 5 4 4 7 10 6 5 11 10 4 2 2 5 2 3 2 2 3 4 3 3 5 4 4 4 4 4 3 2 2 2 2 1 2 4 4 4 4 4 5 5 4 5 8 10 9 6 8 10 11 10 7 4 4
29 25 19 21 23 22 23 24 24 22 13 5 10 9 1 2 1 1 6 8 7 6 5 5 3 2 5 6 5 6 6 6 8 6 4 4 5 5 11 8 3 9 13 7 3 2 4 3 2 2 2 2 3 2 5 1 4 4 3 3 3 3 4 2 2 4 3 3 3 4 4 4 7 6 5 8 9 8 9 8 7 10 8 6 6 3 0 1
29 17 10 20 25 22 21 22 20 15 8 5 8 5 0 2 1 1 6 7 4 3 4 5 4 4 4 4 3 5 5 5 8 7 4 6 5 4 7 9 5 8 11 7 4 3 3 2 3 2 3 1 1 3 6 6 3 3 3 3 1 1 2 2 0 2 4 4 3 2 4 5 6 4 7 10 9 8 8 6 7 11 6 4 5 5 4 3
21 9 6 19 24 23 24 20 12 8 4 2 2 2 0 2 3 2 5 5 2 2 3 5 5 5 5 4 4 5 4 3 6 6 3 5 6 4 7 11 10 10 8 5 3 4 2 3 4 1 1 3 4 4 4 6 6 6 5 6 6 4 4 3 3 1 3 3 4 3 4 8 6 5 7 7 5 6 7 5 8 14 12 8 7 7 7 6
8 4 8 17 20 26 25 12 2 2 2 2 2 3 3 3 3 3 3 3 3 3 3 4 3 3 5 5 5 6 6 4 5 6 4 7 8 5 7 12 17 18 12 5 3 4 3 4 5 2 3 5 4 3 2 3 2 3 4 4 6 5 5 6 6 3 2 1 2 4 2 7 4 4 6 6 5 5 5 6 10 15 15 13 11 4 5 10
6 6 10 15 19 27 22 4 1 2 1 2 3 4 4 3 2 2 2 1 2 2 2 2 2 2 3 4 5 7 8 5 6 8 6 5 6 5 7 16 21 18 11 4 3 4 4 4 4 1 3 3 4 4 3 1 2 2 4 3 5 3 3 5 5 4 4 3 2 4 3 7 4 1 3 6 8 8 6 7 10 11 11 12 11 2 10 15
8 7 9 13 16 21 15 3 5 7 2 2 3 3 2 2 2 3 2 2 2 2 3 2 1 2 2 3 5 8 10 6 6 9 5 3 4 5 10 21 21 13 8 7 8 9 6 2 4 3 2 4 4 4 3 2 2 3 3 2 4 4 6 5 2 3 2 5 7 5 5 8 4 4 3 2 6 6 3 3 5 6 6 5 4 7 14 16
8 5 5 9 11 12 6 1 2 5 3 3 3 3 3 2 1 1 2 2 2 3 3 2 1 3 2 3 4 5 8 5 3 6 4 1 2 1 7 19 20 12 7 8 13 15 8 3 5 7 5 6 6 5 5 4 3 2 1 3 5 7 8 5 2 4 3 5 6 6 8 8 3 5 5 4 5 4 1 1 3 3 4 6 10 12 14 14
6 2 2 4 5 6 3 2 3 3 3 4 3 3 5 3 0 1 2 2 1 2 4 1 3 4 2 4 5 4 8 3 1 4 5 4 3 1 3 13 17 12 5 7 18 16 4 2 7 9 11 12 11 7 4 7 7 5 5 7 8 8 10 7 4 4 7 5 4 7 12 12 8 2 4 6 4 3 4 2 4 7 11 13 14 12 11 11
4 1 3 3 2 3 3 4 6 2 2 6 4 3 8 7 1 1 2 1 2 3 3 2 2 3 3 6 6 5 8 4 1 3 4 4 3 1 1 5 10 10 5 9 18 13 4 3 9 9 13 13 8 6 4 7 9 11 11 11 10 11 11 10 8 12 11 5 7 13 11 13 15 7 5 8 5 4 7 7 8 11 13 13 12 12 11 10
3 1 4 5 2 2 3 6 10 5 2 6 2 1 8 10 6 4 3 1 1 3 2 1 1 4 6 7 6 4 6 5 3 3 1 2 2 1 3 2 2 6 4 6 11 8 4 6 8 7 12 13 6 6 6 6 8 9 12 14 13 14 14 14 16 18 12 9 14 14 10 12 19 10 9 10 7 8 10 9 9 11 12 13 14 14 14 11
3 1 3 5 3 2 4 9 12 8 5 6 3 1 7 11 12 8 2 3 1 2 3 3 4 5 5 5 5 5 7 5 5 5 3 3 3 3 3 1 0 3 4 4 4 3 3 5 6 7 9 12 8 7 6 8 7 5 9 12 13 15 17 18 20 21 18 15 16 11 6 13 19 9 8 12 16 17 15 8 8 12 14 15 16 16 17 16
2 1 3 4 2 2 6 11 12 7 5 6 4 3 6 9 13 9 3 5 6 4 4 6 5 6 5 4 4 4 5 4 4 7 6 4 3 2 3 4 2 2 3 3 2 2 3 4 3 6 5 9 7 7 7 7 7 6 6 7 10 14 16 18 19 17 14 12 13 12 9 15 15 5 8 17 21 18 14 12 15 17 17 18 19 22 24 24
4 2 3 4 2 2 5 7 8 5 4 5 5 4 5 7 11 9 4 6 8 6 7 9 6 4 3 3 3 4 4 5 5 7 8 7 5 4 2 4 6 5 4 4 2 3 4 2 2 5 4 7 4 7 7 4 3 2 6 6 11 13 13 15 13 10 10 10 12 12 10 15 13 6 9 17 14 11 14 18 21 23 25 28 30 31 33 32
8 4 3 3 1 2 3 3 6 6 4 6 7 6 6 7 8 8 4 4 7 9 10 10 8 5 3 4 7 7 8 9 9 11 11 10 8 8 7 6 7 7 6 4 2 2 5 4 2 4 5 6 2 6 8 7 5 3 9 13 16 13 11 10 7 8 12 12 11 11 11 16 13 4 7 11 7 11 18 23 25 29 32 34 36 36 37 36
Wind_Direction
181 192 193 184 180 180 180 179 179 178 177 180 184 186 189 190 191 193 193 189 190 196 200 201 199 196 193 193 198 204 212 220 222 229 231 224 217 216 214 207 206 208 208 208 200 194 189 182 180 174 169 160 152 157 149 147 145 129 110 94 151 183 197 189 179 189 165 206 207 185 184 181 207 197 180 178 180 195 196 199 207 206 210 219 227 227 198 195
187 195 190 184 181 179 178 177 175 175 176 178 179 182 185 187 190 192 193 191 192 196 196 195 194 194 193 193 197 202 212 222 230 234 228 220 216 215 214 204 203 206 205 206 198 191 190 183 175 171 169 158 148 160 157 152 145 117 97 110 202 203 201 191 180 188 170 165 188 183 187 190 209 186 176 186 184 179 195 209 217 218 217 219 221 217 204 198
193 196 188 183 181 178 176 176 174 174 175 174 175 177 179 181 185 188 189 187 189 191 191 192 194 196 193 191 195 200 211 228 244 238 222 214 213 211 211 203 199 202 201 201 195 188 191 187 175 172 168 152 142 161 161 153 157 120 105 123 237 213 207 206 192 199 209 189 172 178 189 198 212 183 181 191 163 172 206 212 213 220 219 216 215 212 204 199
196 194 188 181 178 178 176 175 174 175 174 172 173 173 174 176 179 183 184 182 185 190 190 193 195 195 194 191 191 196 208 241 254 238 219 212 210 205 208 203 199 200 197 194 190 186 187 183 176 171 162 137 130 156 161 157 173 153 129 166 226 187 165 214 205 227 219 196 177 177 177 200 202 183 187 175 142 231 230 218 218 224 220 211 210 211 203 200
196 193 189 182 178 178 177 176 175 175 173 173 173 171 172 173 176 180 183 182 186 191 192 194 195 196 194 191 189 187 185 251 257 232 219 211 205 202 202 200 204 202 191 190 186 182 182 179 173 167 152 124 123 143 166 159 152 139 148 201 173 149 107 183 199 234 209 190 179 171 168 191 184 184 198 180 174 232 236 230 230 233 229 218 215 212 202 200
198 192 188 186 180 177 178 178 176 174 174 174 172 172 173 175 177 180 185 185 186 191 194 195 196 197 195 192 190 181 175 163 271 216 210 208 202 197 194 197 207 203 190 188 184 178 177 176 173 166 136 103 134 135 158 163 152 147 240 229 158 157 103 93 191 207 192 182 176 174 182 185 170 189 211 203 216 227 241 250 240 237 231 225 222 214 206 204
197 191 187 185 181 179 179 179 177 175 174 174 173 173 175 177 179 182 185 185 186 192 196 199 199 199 196 194 192 185 195 217 297 206 200 201 201 195 193 199 204 202 193 187 184 179 176 177 175 166 120 87 157 136 135 155 146 120 167 194 163 178 135 59 69 150 167 183 180 177 185 187 179 196 223 226 232 232 236 254 259 244 228 224 224 219 218 215
193 190 187 184 182 182 181 180 178 176 175 175 174 175 176 178 180 183 185 184 187 193 199 202 203 202 198 196 194 191 210 222 250 224 196 195 200 196 196 201 201 201 194 190 188 182 180 179 176 168 135 119 172 151 137 137 74 91 154 181 147 143 148 86 79 123 143 165 170 171 178 200 203 210 253 247 244 238 235 241 258 259 229 223 223 224 224 222
190 188 188 186 185 184 183 181 178 178 177 176 175 175 177 179 181 184 186 186 188 195 202 205 208 206 201 199 193 194 218 219 224 233 197 195 197 196 198 202 201 199 195 193 192 189 189 184 181 179 179 183 156 143 150 144 253 172 146 157 138 106 116 118 111 115 127 144 155 168 171 205 204 240 270 258 257 249 239 240 245 250 240 227 224 226 227 227
190 188 188 187 187 185 184 183 181 180 179 177 176 175 176 179 182 186 188 188 188 195 203 206 209 207 204 199 188 195 218 215 222 234 209 198 198 198 199 201 201 199 196 196 195 197 198 193 190 182 170 172 147 133 159 154 213 154 127 118 104 91 100 124 141 114 117 127 143 170 185 257 166 196 259 254 268 251 237 236 236 239 244 236 226 225 227 231
188 186 186 187 187 184 183 184 185 184 182 180 177 176 176 179 183 187 190 189 189 196 202 208 210 207 206 200 190 197 211 214 224 232 223 203 200 202 202 200 202 199 199 200 199 200 199 199 192 180 177 176 152 129 158 157 132 134 126 105 47 53 93 81 129 130 119 110 124 147 152 303 105 190 239 232 251 276 234 229 231 232 238 239 229 224 225 231
186 185 186 187 186 184 184 184 186 187 186 182 180 178 177 179 183 188 191 190 192 195 201 208 208 207 206 204 207 209 209 216 223 229 225 204 199 202 203 202 201 198 199 200 198 196 192 191 189 191 184 159 151 121 147 143 126 124 121 117 359 14 39 7 71 145 137 108 129 118 62 293 223 227 239 234 237 261 254 233 233 232 234 237 234 228 227 232
184 185 186 187 186 184 184 184 185 187 187 185 183 181 178 179 182 187 192 192 194 194 199 207 208 208 202 205 219 216 215 221 217 223 219 201 198 199 201 202 198 195 194 190 185 184 180 178 189 192 164 151 146 124 134 117 115 118 82 114 28 13 350 318 20 143 142 126 157 133 248 274 252 241 239 240 234 239 247 235 232 233 234 236 237 237 237 238
183 185 187 187 186 184 183 184 185 185 186 186 185 184 181 180 182 187 191 192 194 193 197 203 205 205 201 209 226 222 221 224 218 220 214 198 195 195 196 196 192 189 187 179 173 177 174 170 182 174 149 146 135 121 112 52 71 98 60 70 59 118 263 302 336 160 142 163 174 133 205 265 267 261 243 241 236 234 243 234 229 236 236 238 240 241 244 245
184 186 186 187 186 185 184 184 184 185 186 186 187 187 183 181 183 185 189 191 192 193 193 197 200 197 200 219 227 223 221 224 227 217 206 196 192 191 188 183 180 179 180 177 172 178 178 174 170 148 126 133 130 116 61 15 31 39 101 309 352 160 256 310 336 155 143 178 142 121 212 269 269 274 248 227 234 232 244 246 246 250 245 243 245 245 249 250
185 187 187 187 186 185 185 184 184 185 185 186 187 187 186 184 183 183 186 188 189 189 187 190 196 189 184 219 218 220 218 218 223 210 197 190 188 186 178 170 167 167 172 175 176 181 179 167 145 123 120 130 129 104 61 39 355 1 103 187 261 166 263 315 348 344 79 136 55 106 221 267 285 269 169 116 31 234 251 261 260 257 251 246 248 251 252 252
187 188 188 187 186 186 185 185 185 185 184 185 186 187 187 185 182 181 181 182 183 182 181 186 190 192 213 225 212 217 211 210 212 201 188 182 184 183 175 167 161 162 165 168 173 175 170 154 137 126 106 108 111 98 92 342 268 309 45 116 224 185 203 285 299 337 34 99 275 29 232 249 275 278 255 256 290 291 283 281 277 271 260 251 250 252 251 251
187 189 191 188 186 187 186 186 186 185 183 183 184 185 185 185 183 179 176 176 171 164 172 180 170 180 238 225 207 207 203 202 202 193 183 179 179 178 177 172 166 162 154 153 164 166 159 132 122 130 56 64 125 120 144 210 195 194 186 148 218 206 209 251 251 304 18 66 238 312 274 263 273 280 275 275 281 282 281 281 280 276 268 262 259 256 254 252
188 190 192 189 187 187 187 188 188 185 182 181 181 180 178 179 177 173 171 168 162 151 169 180 167 151 279 213 196 195 195 192 191 187 181 177 173 173 176 175 173 164 147 140 162 162 143 98 99 138 149 160 190 172 177 198 178 177 177 145 155 173 233 246 244 282 7 110 246 251 252 271 276 281 283 281 282 281 281 281 278 274 269 266 262 259 257 254
190 193 193 189 187 187 188 189 189 185 182 183 179 173 169 164 155 162 171 168 166 148 108 176 178 173 6 188 185 183 184 183 184 183 178 176 171 167 167 165 166 158 143 144 164 155 123 136 177 186 187 191 198 171 144 155 142 138 131 120 148 173 246 257 262 305 23 138 257 273 271 277 273 276 279 280 285 285 280 279 275 271 267 264 262 261 259 258
192 195 194 191 188 186 190 190 189 186 183 184 180 174 174 170 158 166 171 170 179 160 87 169 185 195 6 155 178 172 169 173 181 182 177 176 170 165 165 159 149 140 192 137 118 100 119 174 213 207 191 177 164 131 106 96 89 98 134 144 170 198 232 254 268 316 11 142 264 356 323 278 268 273 274 277 283 274 267 266 267 268 267 266 265 264 263 263
191 194 194 194 191 187 190 191 189 186 183 184 183 181 184 183 180 179 169 164 190 181 128 168 189 201 225 180 180 171 161 160 177 183 178 174 172 174 172 150 136 149 258 108 108 103 153 219 232 199 150 107 88 88 95 92 87 88 116 134 171 222 240 278 299 330 15 109 262 355 336 278 266 269 269 266 261 259 262 259 261 265 266 267 268 268 269 269
190 193 198 199 195 192 193 192 190 188 186 187 185 181 182 185 187 182 171 150 182 189 196 183 189 201 206 199 187 181 171 159 173 182 179 176 174 174 165 142 127 142 161 172 151 150 181 252 239 172 139 110 87 66 90 88 80 92 111 134 190 243 198 222 288 328 11 69 264 321 312 283 279 282 273 266 259 261 264 261 262 262 262 266 268 271 273 274
192 193 200 203 199 199 196 193 192 191 191 189 184 179 178 183 184 178 168 96 130 190 201 195 190 197 198 193 187 187 184 175 178 182 181 179 171 165 163 145 123 135 176 186 154 159 205 264 174 141 130 123 122 103 114 117 88 70 143 145 169 196 177 193 286 330 1 26 33 15 321 294 306 313 284 281 286 274 268 267 266 261 259 264 267 270 272 275
191 193 200 203 205 206 198 197 200 195 193 191 183 176 175 179 179 174 161 59 32 193 198 198 197 198 197 193 187 182 180 183 187 184 183 183 173 159 148 144 145 174 183 140 128 169 235 235 137 129 102 114 128 161 181 155 152 265 218 177 173 173 162 146 33 53 35 356 357 27 334 287 316 311 272 301 342 305 293 285 273 269 266 265 267 269 268 269
190 194 201 205 209 207 198 201 205 197 194 192 183 172 173 175 171 172 157 44 304 219 174 185 188 192 193 189 175 164 168 203 195 188 184 184 181 166 143 135 111 167 166 131 127 186 229 111 119 127 126 122 129 183 209 154 131 215 238 176 148 132 129 127 108 86 86 265 327 49 144 265 311 292 265 310 335 306 304 294 278 279 282 281 279 279 273 266
189 189 198 206 209 209 200 199 202 196 193 191 181 171 172 170 164 167 143 30 279 190 145 174 177 180 185 176 166 158 150 183 174 185 184 181 185 173 164 175 87 134 165 128 152 231 126 101 76 100 114 117 138 196 211 147 130 212 232 134 126 122 133 141 109 95 194 238 329 18 115 249 298 267 267 330 331 308 304 292 285 285 289 294 289 282 274 268
189 186 193 203 210 216 211 209 205 196 190 183 176 173 171 165 160 155 122 47 227 151 137 173 166 170 173 166 169 162 133 154 150 183 184 178 181 168 165 196 154 144 156 130 187 259 93 149 169 138 124 143 178 217 189 144 124 236 200 119 124 125 126 118 96 92 29 0 310 319 90 204 272 272 304 349 314 292 285 274 280 289 297 307 297 278 261 253
188 188 194 199 206 215 216 222 214 198 186 175 172 174 167 160 154 129 94 169 178 103 138 161 155 165 161 157 170 158 130 151 139 165 173 172 178 165 137 177 145 118 75 99 172 239 47 177 197 149 148 188 198 305 167 143 124 170 145 98 81 76 79 80 88 100 51 19 251 263 288 195 264 280 298 332 257 254 263 266 271 289 313 333 324 290 242 224
189 192 196 199 203 206 211 219 209 192 180 169 169 171 161 154 144 120 160 215 163 90 131 155 165 166 151 145 162 142 127 135 117 139 153 161 167 147 115 135 127 112 53 34 96 226 336 53 125 112 152 170 134 61 37 80 132 139 119 77 64 38 36 49 55 83 64 307 253 254 286 189 265 277 255 219 224 216 237 285 289 302 336 359 3 16 169 174
194 196 200 204 208 209 212 209 191 180 173 166 164 162 153 142 109 142 186 200 120 92 102 145 177 157 155 158 166 160 113 58 132 141 144 145 144 131 118 128 106 85 36 17 65 315 355 60 40 43 129 130 108 61 37 62 113 116 94 92 85 8 12 24 1 43 98 255 261 268 292 172 226 261 252 242 256 231 218 256 274 297 330 1 25 48 100 137
190 193 198 205 212 216 216 202 182 171 166 161 159 157 148 125 186 190 188 143 142 181 168 182 204 173 169 163 151 154 123 92 163 151 145 146 151 162 154 167 155 96 293 209 180 330 357 65 299 10 172 166 121 77 46 15 29 75 100 109 95 11 16 2 310 338 216 242 271 281 238 214 235 251 260 267 270 252 225 239 249 275 304 335 10 40 89 118
186 186 189 199 208 210 208 194 175 165 161 159 157 151 131 133 194 204 198 166 196 202 155 156 154 154 158 150 149 158 121 139 183 155 134 135 155 194 239 189 155 128 190 184 125 101 282 303 315 86 227 216 162 127 134 240 234 127 135 132 130 122 101 247 260 286 260 257 295 286 247 262 273 266 249 251 260 268 272 266 263 271 291 312 329 357 91 115
186 184 188 197 200 196 193 179 168 163 159 157 156 144 127 181 196 201 198 203 239 39 83 116 101 116 147 153 185 174 118 137 174 135 124 127 145 196 229 219 169 107 111 149 149 168 194 271 231 168 198 192 179 171 156 147 142 174 163 132 146 155 154 203 213 203 237 275 308 296 255 203 225 274 238 239 262 279 276 267 264 267 278 296 305 306 135 135
180 184 191 193 186 183 180 170 165 163 160 158 155 154 174 192 208 200 190 192 192 78 50 87 109 128 163 47 291 196 144 165 171 122 142 164 171 191 194 198 193 135 131 163 202 169 175 250 258 297 290 154 165 212 136 113 111 247 116 105 161 185 140 136 177 173 169 339 313 265 237 216 215 275 274 263 274 282 273 261 259 260 266 280 288 292 261 189
173 180 187 183 176 173 172 169 164 164 165 160 153 180 193 202 212 194 172 145 147 132 102 83 83 129 170 69 224 225 270 108 159 146 174 194 203 194 190 195 189 179 168 163 171 154 159 260 309 348 10 94 121 207 122 115 172 168 121 172 213 169 112 113 193 71 81 227 271 226 251 289 321 289 293 298 280 288 294 276 261 256 258 265 270 281 275 222
171 172 175 176 170 163 168 171 165 166 171 169 169 188 199 205 189 171 146 128 136 135 123 136 156 146 168 174 190 203 190 115 157 172 181 191 228 194 194 211 187 187 194 155 168 202 156 182 324 32 115 350 9 100 66 45 106 124 174 207 193 119 94 110 165 11 44 240 275 282 246 288 320 273 317 355 262 274 287 283 281 266 250 249 259 269 268 241
168 167 171 177 167 155 164 172 169 169 172 173 190 198 190 166 188 168 148 134 131 133 133 162 171 142 170 185 189 187 177 164 176 185 174 188 243 198 178 196 188 186 193 150 124 210 133 137 312 29 160 301 350 102 97 22 49 119 176 168 118 139 164 89 140 166 120 233 276 299 278 263 210 231 302 312 221 236 261 274 298 280 249 246 261 267 258 248
162 166 174 177 162 152 163 171 168 168 168 175 198 208 180 128 209 212 157 143 128 132 153 176 162 110 171 176 168 175 184 179 171 179 181 186 237 208 175 182 181 182 185 157 135 192 119 136 250 318 267 292 16 131 191 200 32 56 106 107 80 128 163 157 153 163 166 193 247 309 324 266 226 213 219 235 227 219 243 264 281 278 270 271 282 271 172 257
160 158 172 174 162 155 161 162 161 166 177 195 193 199 57 121 147 176 159 153 128 122 167 183 161 143 165 167 155 168 184 178 169 182 205 188 209 242 196 185 159 165 170 140 121 164 110 144 207 299 322 227 182 213 189 168 139 99 123 159 180 71 110 161 130 117 139 157 189 270 296 266 249 206 194 223 232 215 222 239 262 277 301 350 323 303 295 262
155 135 162 175 167 160 157 154 157 173 189 208 165 147 109 129 132 146 155 149 98 61 135 152 149 152 152 152 171 171 155 152 174 187 210 199 203 231 210 188 156 144 146 116 137 173 141 150 167 157 313 198 224 248 192 174 168 160 171 184 181 155 124 154 242 245 115 140 166 176 264 267 249 204 200 218 225 219 226 238 268 282 297 316 320 305 276 228
143 95 155 168 167 163 158 151 158 166 167 187 147 122 128 118 117 138 144 127 89 54 81 108 123 149 157 160 165 162 155 156 184 193 211 217 208 208 207 183 158 151 153 145 168 165 119 110 124 153 217 215 245 275 218 204 173 154 194 194 176 172 140 152 209 221 117 143 149 118 262 273 253 194 206 226 249 270 262 244 260 280 296 309 318 312 184 168
106 88 140 153 162 164 159 150 274 169 210 191 124 82 97 110 105 128 144 127 98 79 73 97 128 147 170 168 150 160 171 171 189 199 210 222 213 210 194 172 158 156 155 145 158 150 119 115 131 196 302 306 314 337 9 33 108 182 238 191 163 186 149 144 181 172 146 186 152 102 267 272 284 290 235 246 270 287 276 251 263 284 302 310 311 275 150 145
106 93 129 147 165 171 166 181 203 189 189 104 103 83 86 98 106 123 155 178 147 132 125 132 162 146 160 149 142 172 183 179 202 207 207 212 210 212 186 173 165 163 171 180 176 171 177 163 131 125 8 346 334 340 330 290 198 201 234 164 144 126 99 99 114 107 153 213 167 152 237 256 285 324 331 309 302 308 304 262 275 293 303 294 253 173 152 144
118 84 113 149 174 182 172 90 169 176 144 107 135 156 120 72 65 131 144 134 135 141 135 151 150 110 121 132 112 163 184 172 179 195 194 211 220 215 182 182 180 176 186 187 165 162 177 184 146 156 181 200 211 215 221 210 178 198 185 137 155 142 134 153 133 108 230 229 160 172 236 251 298 342 335 335 339 335 340 172 212 217 184 165 161 158 153 146
139 106 120 156 188 192 179 106 105 114 135 149 173 173 160 166 264 156 137 117 125 116 94 108 147 102 93 146 127 163 197 191 79 173 187 195 215 297 185 190 193 189 179 159 157 153 140 192 183 191 202 206 209 208 175 126 139 199 194 162 174 175 166 161 122 163 217 203 169 219 236 248 259 273 297 297 296 275 271 239 198 181 165 159 159 163 166 162
145 162 155 156 184 181 180 168 154 131 161 172 175 180 184 189 167 124 184 182 184 161 88 43 143 148 164 166 152 174 196 193 130 164 177 174 191 329 96 178 191 193 174 154 161 149 86 208 203 204 218 224 212 194 174 140 163 195 190 175 180 181 175 171 186 215 211 173 235 237 219 244 254 211 208 262 254 242 257 237 205 184 168 166 175 187 195 189
146 154 169 167 165 180 193 173 165 162 159 173 180 203 195 196 185 183 204 197 196 189 162 34 228 192 178 169 161 163 173 184 202 195 149 142 170 85 57 60 173 188 163 151 169 151 113 207 210 194 224 240 213 171 186 178 179 194 190 186 184 179 181 190 209 222 207 189 238 235 176 221 251 223 197 230 221 218 236 223 199 189 184 192 201 210 217 218
145 101 166 171 166 186 176 156 154 157 161 167 177 193 195 202 202 196 139 101 213 231 183 200 219 195 178 161 148 156 168 177 204 204 160 130 152 124 110 86 267 196 159 134 172 167 145 211 206 173 219 248 222 176 184 187 185 203 200 189 184 185 191 199 212 223 218 215 239 246 190 229 250 229 192 227 232 234 241 234 215 210 209 214 222 230 236 237
160 138 149 153 134 140 150 147 150 161 169 171 187 197 190 202 204 198 145 157 191 201 189 203 195 171 167 145 133 170 191 172 184 199 176 149 170 183 176 178 160 159 160 144 168 187 181 220 185 144 204 257 227 180 192 195 186 208 219 193 186 195 202 210 218 223 223 229 249 261 261 260 258 207 192 237 239 234 239 239 236 237 235 237 241 244 248 251
181 132 114 132 132 143 152 151 155 164 175 184 192 180 180 206 205 193 192 210 204 193 194 193 167 134 135 147 178 208 176 110 109 144 139 127 151 167 172 177 156 143 162 167 147 158 180 212 69 110 179 254 228 169 175 149 109 234 255 219 197 200 208 217 220 218 212 218 239 249 254 261 257 186 201 239 230 210 227 233 236 244 246 247 250 252 255 260
197 157 108 115 133 173 170 153 162 175 189 191 188 176 179 198 195 178 188 237 221 212 209 189 157 136 147 192 224 210 156 115 95 103 97 81 89 95 90 109 129 138 157 158 125 141 160 160 128 136 185 254 265 138 137 107 84 259 248 223 208 204 210 218 225 229 219 207 217 229 231 248 255 182 196 234 199 189 224 229 231 239 243 247 251 254 259 264
Height
1451 1452 1453 1455 1457 1459 1460 1462 1464 1466 1468 1470 1473 1475 1478 1481 1483 1486 1489 1491 1493 1495 1498 1500 1502 1503 1504 1505 1506 1508 1510 1510 1511 1511 1510 1511 1512 1512 1513 1513 1514 1515 1516 1516 1517 1518 1518 1519 1520 1522 1522 1523 1524 1524 1526 1527 1528 1529 1533 1537 1540 1545 1542 1539 1541 1540 1539 1538 1538 1539 1540 1542 1542 1542 1543 1543 1544 1544 1545 1546 1546 1547 1547 1548 1549 1550 1550 1551
1449 1450 1452 1454 1456 1458 1460 1462 1464 1466 1468 1470 1473 1475 1478 1480 1483 1486 1488 1490 1492 1495 1497 1499 1501 1502 1503 1504 1506 1508 1509 1510 1510 1508 1508 1510 1511 1511 1512 1513 1514 1514 1515 1516 1517 1517 1518 1519 1520 1521 1522 1523 1524 1525 1526 1527 1527 1530 1536 1538 1538 1541 1537 1534 1536 1536 1537 1536 1537 1539 1540 1541 1541 1541 1542 1543 1544 1544 1545 1545 1546 1546 1547 1548 1549 1549 1550 1550
1447 1449 1451 1453 1455 1457 1459 1461 1463 1465 1467 1470 1473 1475 1477 1480 1483 1486 1488 1490 1492 1495 1497 1499 1501 1502 1503 1503 1505 1507 1508 1510 1508 1507 1508 1510 1510 1510 1511 1512 1513 1514 1515 1516 1516 1517 1518 1519 1520 1521 1522 1523 1524 1525 1526 1527 1528 1529 1534 1536 1535 1535 1534 1534 1535 1535 1536 1536 1537 1539 1540 1541 1541 1541 1542 1542 1543 1545 1544 1544 1544 1545 1545 1547 1548 1549 1549 1550
1446 1448 1450 1451 1454 1456 1458 1461 1463 1465 1467 1470 1472 1475 1477 1480 1482 1485 1488 1490 1492 1495 1497 1499 1500 1501 1502 1503 1504 1506 1508 1510 1507 1505 1507 1508 1509 1510 1510 1512 1512 1513 1514 1515 1516 1517 1518 1519 1520 1521 1522 1523 1524 1525 1526 1527 1528 1529 1531 1533 1533 1533 1534 1534 1534 1535 1536 1537 1538 1538 1540 1541 1541 1541 1541 1542 1544 1544 1543 1541 1542 1542 1544 1546 1547 1548 1548 1549
1445 1447 1449 1451 1453 1455 1458 1460 1462 1465 1467 1469 1472 1474 1477 1480 1482 1485 1488 1490 1492 1495 1496 1498 1500 1501 1502 1502 1504 1505 1508 1510 1505 1503 1506 1507 1508 1509 1510 1511 1512 1513 1514 1515 1516 1517 1518 1519 1520 1521 1522 1523 1525 1525 1526 1527 1527 1529 1531 1532 1532 1533 1534 1534 1535 1536 1536 1537 1538 1539 1539 1540 1540 1541 1540 1541 1542 1541 1540 1540 1541 1542 1543 1545 1546 1547 1547 1549
1444 1446 1448 1450 1452 1455 1457 1460 1462 1464 1467 1469 1472 1474 1477 1480 1482 1485 1488 1490 1491 1494 1496 1497 1499 1500 1501 1501 1503 1504 1506 1506 1503 1502 1505 1506 1507 1508 1509 1511 1512 1513 1513 1514 1516 1516 1518 1519 1520 1521 1522 1523 1525 1525 1526 1527 1527 1528 1531 1532 1532 1533 1533 1534 1535 1535 1536 1536 1537 1537 1538 1539 1540 1540 1540 1540 1538 1538 1539 1540 1540 1541 1543 1544 1545 1546 1546 1547
1443 1445 1447 1450 1452 1454 1457 1459 1462 1464 1467 1469 1471 1474 1477 1479 1482 1485 1487 1489 1491 1493 1495 1496 1498 1499 1500 1501 1502 1504 1504 1502 1501 1502 1503 1505 1506 1507 1509 1510 1511 1512 1513 1514 1515 1516 1517 1518 1520 1521 1522 1524 1525 1525 1526 1527 1527 1528 1530 1531 1532 1533 1533 1534 1535 1535 1536 1536 1536 1537 1538 1538 1539 1539 1539 1537 1535 1538 1539 1539 1540 1541 1542 1544 1544 1545 1546 1546
1442 1445 1447 1449 1451 1454 1456 1459 1462 1464 1467 1469 1471 1474 1476 1479 1482 1484 1486 1488 1490 1492 1494 1496 1497 1498 1500 1501 1501 1503 1503 1501 1502 1503 1503 1505 1506 1507 1509 1510 1511 1512 1512 1514 1515 1516 1517 1518 1520 1521 1522 1524 1524 1525 1526 1527 1528 1528 1529 1531 1532 1533 1533 1534 1535 1535 1536 1536 1537 1537 1538 1538 1539 1539 1538 1535 1534 1537 1538 1538 1539 1540 1541 1542 1543 1544 1545 1546
1441 1443 1446 1448 1451 1453 1456 1459 1461 1464 1466 1468 1471 1473 1476 1479 1481 1484 1486 1488 1489 1491 1493 1495 1496 1498 1499 1500 1501 1503 1501 1500 1502 1503 1503 1504 1506 1507 1508 1509 1510 1511 1512 1513 1515 1516 1517 1518 1519 1520 1521 1523 1524 1525 1526 1527 1528 1528 1529 1530 1532 1533 1534 1535 1535 1536 1536 1536 1537 1537 1538 1539 1538 1539 1536 1532 1534 1535 1536 1537 1538 1539 1540 1541 1542 1543 1544 1544
1440 1442 1445 1447 1450 1452 1455 1458 1461 1463 1466 1468 1470 1472 1475 1478 1480 1483 1485 1487 1489 1491 1493 1494 1496 1497 1498 1499 1501 1501 1499 1500 1502 1502 1503 1504 1505 1507 1508 1509 1509 1510 1511 1513 1514 1516 1517 1518 1519 1520 1521 1522 1523 1525 1526 1526 1527 1527 1529 1530 1532 1533 1534 1534 1535 1536 1536 1537 1537 1537 1539 1538 1539 1539 1535 1531 1532 1533 1534 1536 1537 1538 1539 1539 1540 1541 1542 1543
1439 1441 1444 1446 1449 1451 1454 1458 1461 1463 1465 1467 1470 1471 1474 1477 1480 1482 1485 1486 1488 1490 1492 1494 1495 1497 1498 1499 1500 1500 1498 1500 1501 1502 1503 1503 1505 1506 1507 1508 1509 1510 1511 1512 1514 1516 1517 1518 1519 1520 1521 1522 1524 1525 1526 1526 1527 1528 1528 1530 1532 1533 1533 1534 1535 1535 1536 1536 1537 1537 1538 1538 1539 1538 1532 1531 1532 1532 1533 1534 1535 1536 1537 1538 1539 1540 1541 1541
1438 1440 1443 1445 1448 1451 1454 1457 1460 1463 1465 1468 1470 1471 1473 1476 1479 1482 1484 1486 1487 1489 1491 1493 1495 1496 1497 1498 1498 1498 1499 1500 1500 1501 1502 1502 1504 1505 1507 1508 1508 1510 1511 1513 1514 1516 1517 1518 1519 1520 1520 1521 1524 1526 1526 1527 1528 1528 1529 1531 1533 1534 1534 1534 1535 1535 1535 1536 1537 1537 1539 1539 1537 1533 1529 1530 1532 1531 1532 1533 1534 1535 1536 1537 1538 1538 1539 1540
1437 1439 1442 1444 1447 1450 1453 1456 1459 1462 1465 1467 1469 1471 1473 1475 1478 1481 1483 1485 1487 1489 1490 1492 1494 1495 1496 1497 1497 1498 1499 1499 1499 1500 1501 1502 1503 1505 1506 1507 1508 1510 1511 1513 1514 1516 1517 1518 1519 1520 1520 1521 1524 1525 1525 1527 1528 1528 1531 1531 1534 1536 1535 1535 1536 1536 1535 1536 1536 1537 1540 1537 1532 1529 1528 1530 1531 1530 1531 1531 1532 1533 1534 1535 1536 1537 1537 1538
1436 1438 1441 1443 1446 1449 1452 1455 1458 1461 1464 1467 1469 1471 1473 1475 1478 1480 1483 1485 1487 1488 1490 1492 1493 1495 1496 1496 1496 1497 1498 1498 1499 1499 1500 1501 1503 1504 1506 1507 1508 1510 1511 1513 1514 1516 1517 1518 1519 1519 1521 1522 1523 1524 1526 1529 1529 1531 1533 1535 1540 1540 1536 1536 1536 1536 1535 1537 1536 1538 1541 1535 1528 1528 1528 1529 1529 1529 1530 1530 1531 1532 1532 1533 1534 1535 1535 1536
1435 1438 1440 1443 1445 1448 1451 1454 1456 1460 1463 1466 1468 1471 1473 1475 1477 1480 1483 1484 1486 1488 1489 1491 1493 1494 1495 1495 1495 1496 1496 1497 1498 1498 1499 1501 1503 1504 1505 1507 1508 1510 1511 1513 1514 1516 1517 1518 1519 1519 1521 1522 1523 1525 1528 1530 1532 1535 1534 1537 1546 1543 1536 1536 1536 1536 1535 1536 1537 1538 1540 1535 1529 1528 1527 1527 1527 1528 1528 1528 1530 1530 1531 1531 1532 1532 1532 1533
1435 1437 1440 1442 1444 1447 1450 1453 1456 1459 1462 1465 1468 1471 1473 1475 1477 1479 1482 1484 1486 1487 1488 1490 1492 1493 1494 1494 1494 1494 1495 1496 1497 1497 1499 1501 1503 1504 1505 1507 1508 1509 1511 1513 1514 1515 1517 1518 1519 1520 1521 1523 1524 1525 1530 1534 1535 1538 1537 1537 1544 1543 1539 1537 1536 1537 1537 1536 1536 1537 1538 1534 1528 1527 1527 1527 1527 1527 1527 1527 1528 1527 1528 1529 1529 1530 1530 1531
1434 1436 1439 1441 1444 1446 1449 1452 1455 1457 1461 1464 1467 1470 1473 1475 1477 1479 1481 1483 1485 1486 1488 1489 1491 1493 1492 1491 1492 1492 1493 1495 1496 1497 1498 1500 1503 1504 1506 1507 1508 1509 1511 1512 1514 1515 1516 1517 1519 1520 1522 1524 1526 1525 1532 1539 1538 1540 1541 1540 1544 1545 1542 1538 1535 1537 1537 1536 1536 1537 1538 1532 1528 1527 1526 1527 1527 1527 1527 1526 1526 1526 1526 1527 1527 1528 1528 1528
1434 1436 1438 1441 1443 1446 1448 1451 1453 1457 1460 1463 1467 1470 1473 1475 1477 1479 1480 1482 1484 1486 1488 1488 1490 1493 1492 1489 1490 1491 1492 1494 1495 1496 1498 1500 1502 1504 1506 1507 1508 1509 1511 1513 1514 1515 1516 1518 1519 1521 1523 1526 1526 1525 1530 1536 1535 1535 1538 1538 1541 1544 1544 1540 1537 1537 1538 1536 1537 1538 1537 1532 1528 1526 1524 1525 1526 1526 1525 1525 1525 1524 1524 1525 1525 1525 1525 1525
1433 1435 1438 1440 1442 1445 1448 1450 1453 1456 1459 1462 1465 1469 1472 1475 1478 1479 1479 1481 1483 1485 1486 1485 1486 1490 1489 1486 1488 1491 1491 1494 1495 1496 1497 1499 1501 1504 1506 1507 1508 1509 1510 1513 1514 1515 1516 1518 1521 1522 1525 1526 1525 1523 1524 1527 1527 1529 1534 1535 1535 1537 1540 1541 1538 1538 1539 1537 1537 1537 1536 1533 1528 1525 1524 1523 1525 1525 1523 1523 1522 1522 1522 1522 1522 1522 1522 1522
1432 1435 1437 1439 1442 1444 1447 1449 1452 1455 1458 1461 1463 1467 1471 1473 1477 1479 1479 1479 1481 1482 1482 1482 1484 1487 1486 1485 1487 1490 1491 1493 1494 1495 1497 1499 1501 1503 1505 1507 1509 1510 1511 1512 1514 1515 1516 1519 1521 1521 1522 1523 1523 1524 1525 1527 1529 1531 1535 1536 1536 1536 1535 1538 1539 1540 1540 1537 1537 1539 1538 1535 1529 1525 1524 1521 1522 1523 1522 1521 1519 1519 1519 1518 1518 1518 1518 1518
1432 1435 1436 1439 1441 1444 1447 1449 1452 1455 1457 1460 1462 1464 1466 1468 1471 1474 1477 1479 1480 1481 1481 1482 1484 1486 1486 1487 1487 1489 1490 1493 1494 1495 1497 1499 1501 1503 1505 1507 1509 1511 1513 1513 1514 1515 1517 1519 1520 1520 1521 1522 1524 1528 1528 1529 1531 1533 1535 1535 1538 1540 1536 1537 1540 1540 1541 1538 1538 1543 1540 1533 1528 1524 1521 1520 1520 1519 1518 1517 1516 1515 1515 1514 1514 1514 1514 1515
1432 1434 1436 1438 1440 1443 1446 1448 1451 1454 1456 1458 1460 1462 1464 1466 1469 1470 1473 1477 1479 1481 1482 1482 1484 1486 1487 1488 1489 1489 1490 1492 1495 1496 1497 1499 1500 1502 1505 1507 1509 1512 1514 1514 1515 1518 1520 1519 1519 1520 1523 1524 1527 1529 1527 1528 1531 1533 1537 1537 1537 1540 1539 1539 1541 1541 1541 1538 1537 1542 1538 1529 1526 1523 1518 1517 1516 1514 1514 1514 1512 1512 1512 1511 1510 1510 1510 1511
1431 1432 1435 1438 1440 1443 1445 1448 1451 1453 1454 1456 1458 1461 1464 1467 1470 1472 1473 1475 1478 1480 1481 1482 1483 1485 1487 1488 1489 1490 1490 1492 1494 1495 1497 1498 1500 1502 1504 1507 1510 1512 1514 1514 1514 1519 1521 1519 1518 1521 1523 1523 1527 1529 1527 1528 1532 1534 1536 1535 1536 1541 1539 1535 1538 1541 1542 1541 1540 1541 1537 1527 1522 1520 1514 1511 1511 1510 1510 1509 1508 1510 1508 1506 1507 1507 1507 1507
1429 1432 1435 1437 1439 1442 1444 1447 1450 1451 1453 1455 1459 1462 1464 1467 1471 1473 1474 1476 1478 1479 1480 1481 1482 1483 1485 1487 1489 1490 1491 1492 1493 1494 1497 1498 1500 1502 1504 1507 1510 1513 1514 1514 1514 1516 1518 1518 1519 1521 1522 1521 1524 1529 1528 1527 1532 1536 1536 1533 1533 1537 1537 1536 1539 1541 1541 1543 1543 1539 1533 1524 1518 1517 1511 1508 1510 1508 1507 1507 1504 1505 1505 1504 1504 1504 1504 1504
1427 1431 1433 1436 1439 1440 1443 1446 1447 1450 1452 1455 1459 1462 1464 1467 1470 1473 1474 1478 1479 1479 1480 1481 1482 1483 1484 1486 1488 1489 1491 1492 1493 1495 1496 1498 1499 1502 1504 1506 1509 1512 1515 1516 1517 1516 1516 1519 1520 1520 1522 1522 1523 1526 1527 1526 1530 1535 1534 1531 1530 1531 1534 1538 1540 1539 1538 1541 1545 1544 1536 1524 1517 1516 1511 1508 1510 1506 1504 1505 1502 1500 1502 1502 1502 1501 1502 1502
1426 1429 1431 1435 1437 1439 1443 1444 1445 1449 1452 1455 1459 1461 1464 1466 1471 1473 1474 1482 1483 1478 1479 1480 1481 1482 1482 1485 1487 1489 1492 1492 1492 1494 1496 1498 1499 1500 1504 1507 1508 1511 1515 1516 1517 1517 1517 1520 1520 1519 1520 1522 1524 1525 1527 1528 1532 1534 1532 1533 1534 1532 1533 1536 1536 1537 1539 1541 1547 1550 1543 1532 1521 1512 1510 1512 1512 1507 1504 1503 1499 1498 1499 1499 1499 1498 1499 1500
1424 1427 1430 1433 1435 1437 1440 1441 1444 1447 1449 1455 1458 1462 1464 1465 1471 1471 1476 1492 1487 1474 1476 1479 1479 1479 1480 1484 1485 1488 1492 1491 1491 1494 1495 1496 1498 1499 1502 1506 1508 1510 1513 1515 1517 1517 1517 1520 1521 1520 1521 1523 1524 1524 1525 1528 1530 1532 1533 1535 1534 1532 1533 1536 1536 1537 1543 1545 1547 1550 1546 1543 1532 1515 1513 1518 1513 1507 1504 1501 1497 1496 1497 1497 1496 1496 1496 1497
1423 1426 1428 1432 1435 1437 1439 1441 1443 1445 1448 1454 1458 1462 1464 1466 1471 1470 1480 1496 1485 1468 1472 1476 1476 1478 1479 1483 1484 1486 1488 1488 1490 1494 1495 1496 1498 1499 1501 1505 1506 1509 1511 1512 1515 1516 1516 1518 1519 1519 1520 1522 1522 1522 1524 1525 1527 1531 1537 1538 1535 1535 1536 1538 1538 1540 1549 1548 1543 1546 1547 1547 1536 1516 1516 1521 1514 1508 1503 1499 1498 1496 1496 1495 1493 1493 1493 1494
1423 1425 1427 1431 1434 1436 1439 1440 1442 1446 1450 1454 1458 1462 1464 1468 1470 1471 1485 1491 1474 1465 1471 1472 1475 1477 1478 1481 1484 1485 1486 1487 1489 1491 1494 1496 1498 1499 1501 1505 1506 1509 1512 1511 1512 1515 1517 1518 1518 1517 1518 1519 1522 1525 1526 1524 1525 1532 1538 1537 1537 1541 1541 1542 1542 1541 1548 1547 1541 1545 1548 1546 1532 1511 1510 1517 1511 1506 1501 1498 1499 1497 1495 1494 1491 1490 1490 1491
1422 1424 1427 1430 1432 1434 1437 1439 1443 1448 1451 1453 1457 1461 1464 1468 1470 1479 1494 1484 1464 1466 1471 1470 1474 1475 1477 1481 1484 1485 1486 1488 1489 1490 1494 1496 1498 1499 1501 1504 1506 1509 1512 1513 1514 1516 1518 1518 1518 1519 1518 1519 1524 1528 1529 1527 1527 1531 1534 1534 1536 1540 1541 1543 1546 1544 1547 1546 1544 1552 1554 1550 1537 1512 1504 1508 1503 1501 1499 1498 1498 1496 1494 1494 1491 1490 1490 1490
1421 1423 1426 1428 1430 1433 1435 1438 1442 1446 1450 1452 1456 1460 1463 1469 1473 1483 1489 1472 1460 1469 1472 1472 1474 1474 1474 1476 1481 1485 1486 1488 1489 1490 1493 1496 1498 1499 1501 1505 1507 1512 1515 1515 1516 1518 1519 1518 1519 1519 1519 1521 1523 1526 1530 1530 1530 1530 1529 1531 1535 1541 1544 1545 1548 1548 1548 1545 1547 1559 1561 1555 1543 1515 1500 1503 1501 1500 1501 1498 1497 1496 1494 1494 1492 1491 1491 1491
1421 1423 1425 1427 1430 1433 1435 1439 1441 1444 1448 1451 1455 1458 1461 1473 1478 1476 1472 1462 1460 1467 1468 1469 1472 1472 1472 1472 1477 1483 1484 1487 1489 1489 1492 1495 1497 1498 1499 1501 1504 1512 1518 1517 1517 1518 1517 1517 1519 1519 1520 1521 1519 1525 1533 1534 1532 1530 1529 1532 1537 1546 1551 1549 1552 1555 1552 1548 1552 1560 1559 1551 1537 1514 1501 1501 1497 1498 1501 1498 1497 1497 1495 1494 1494 1493 1492 1493
1421 1423 1425 1427 1429 1433 1436 1439 1441 1444 1447 1450 1455 1456 1461 1474 1474 1464 1461 1459 1459 1461 1462 1464 1468 1470 1472 1473 1478 1481 1482 1486 1488 1489 1492 1494 1497 1499 1499 1500 1500 1503 1510 1515 1518 1519 1518 1518 1519 1518 1519 1519 1516 1521 1530 1532 1532 1529 1528 1529 1534 1546 1554 1552 1559 1564 1554 1549 1555 1562 1557 1541 1524 1509 1502 1498 1494 1495 1498 1497 1497 1496 1495 1494 1494 1494 1493 1494
1420 1423 1425 1426 1429 1433 1436 1438 1441 1443 1445 1449 1452 1456 1463 1471 1463 1454 1457 1458 1458 1461 1462 1463 1468 1472 1472 1473 1477 1478 1480 1486 1488 1488 1492 1494 1498 1500 1498 1499 1500 1499 1504 1513 1517 1517 1519 1517 1515 1515 1516 1517 1517 1518 1521 1523 1527 1529 1529 1528 1528 1534 1538 1541 1548 1547 1543 1548 1557 1560 1548 1526 1510 1501 1498 1496 1495 1496 1495 1495 1496 1495 1495 1495 1494 1495 1494 1494
1420 1423 1424 1426 1430 1433 1434 1437 1439 1441 1444 1447 1449 1455 1461 1461 1453 1449 1453 1455 1458 1462 1463 1464 1468 1473 1475 1476 1477 1476 1477 1484 1488 1489 1491 1493 1494 1495 1494 1494 1498 1498 1500 1508 1514 1515 1517 1514 1513 1516 1515 1515 1517 1518 1518 1520 1525 1532 1533 1530 1527 1524 1526 1542 1555 1552 1550 1552 1552 1551 1537 1517 1507 1499 1495 1496 1494 1494 1493 1493 1494 1493 1493 1495 1494 1495 1495 1494
1420 1422 1424 1426 1429 1431 1434 1436 1438 1440 1443 1444 1449 1454 1452 1447 1444 1444 1445 1448 1454 1458 1463 1468 1470 1473 1477 1478 1479 1478 1476 1480 1487 1490 1491 1492 1491 1491 1490 1488 1492 1494 1492 1498 1508 1513 1515 1515 1516 1517 1516 1517 1518 1518 1519 1518 1521 1530 1532 1528 1529 1529 1527 1541 1559 1566 1562 1548 1540 1542 1529 1513 1509 1498 1492 1495 1492 1490 1492 1490 1491 1492 1492 1494 1493 1494 1495 1495
1419 1421 1424 1426 1428 1431 1434 1435 1437 1440 1442 1442 1445 1446 1442 1439 1441 1443 1442 1444 1449 1453 1458 1466 1469 1470 1474 1477 1478 1478 1476 1479 1486 1487 1489 1492 1488 1485 1487 1486 1486 1489 1488 1492 1499 1504 1508 1513 1519 1518 1516 1518 1519 1518 1520 1519 1519 1526 1528 1525 1528 1532 1530 1531 1541 1554 1560 1548 1537 1538 1528 1516 1515 1503 1492 1493 1491 1489 1490 1488 1490 1491 1490 1492 1493 1494 1495 1495
1418 1421 1424 1426 1428 1430 1433 1435 1437 1438 1441 1443 1441 1439 1438 1439 1441 1442 1441 1443 1446 1449 1453 1459 1464 1466 1469 1473 1475 1476 1475 1477 1484 1485 1486 1489 1483 1476 1480 1483 1483 1486 1487 1489 1493 1498 1501 1508 1518 1523 1520 1519 1519 1518 1520 1521 1522 1521 1522 1523 1524 1527 1531 1533 1536 1539 1547 1548 1537 1534 1534 1526 1517 1507 1494 1490 1491 1488 1487 1487 1488 1489 1489 1491 1492 1493 1494 1494
1418 1422 1424 1425 1427 1430 1432 1434 1436 1438 1441 1442 1439 1436 1437 1439 1440 1441 1441 1442 1444 1446 1450 1454 1459 1464 1467 1468 1470 1474 1474 1474 1481 1483 1481 1483 1480 1473 1474 1477 1480 1485 1487 1487 1491 1496 1500 1503 1514 1523 1522 1520 1520 1518 1517 1520 1524 1523 1522 1525 1525 1525 1527 1531 1535 1532 1533 1542 1538 1530 1527 1515 1505 1504 1496 1488 1489 1487 1486 1488 1487 1487 1488 1490 1491 1492 1493 1493
1417 1419 1421 1423 1426 1429 1432 1434 1436 1439 1440 1437 1434 1435 1437 1438 1440 1441 1441 1442 1443 1444 1447 1450 1454 1460 1464 1467 1468 1471 1473 1474 1478 1479 1476 1478 1477 1474 1473 1473 1477 1483 1486 1488 1491 1495 1500 1501 1508 1521 1524 1521 1518 1516 1514 1515 1520 1522 1523 1525 1525 1528 1531 1530 1534 1535 1530 1534 1538 1532 1519 1502 1497 1500 1492 1485 1487 1487 1487 1488 1487 1486 1487 1489 1491 1491 1492 1492
1414 1417 1420 1422 1424 1428 1430 1433 1435 1436 1436 1434 1433 1435 1437 1437 1439 1441 1441 1442 1442 1443 1444 1446 1450 1454 1458 1464 1466 1468 1472 1475 1476 1476 1474 1474 1473 1471 1471 1470 1473 1479 1485 1490 1490 1492 1498 1501 1509 1520 1522 1517 1514 1515 1516 1514 1515 1515 1515 1519 1518 1522 1528 1527 1531 1538 1536 1532 1534 1536 1523 1499 1491 1494 1489 1486 1487 1487 1489 1490 1487 1487 1487 1489 1490 1490 1490 1490
1413 1416 1419 1420 1423 1426 1428 1431 1433 1434 1433 1434 1434 1434 1435 1436 1438 1440 1441 1441 1442 1443 1445 1446 1449 1452 1454 1458 1461 1464 1469 1472 1475 1474 1471 1469 1468 1466 1467 1468 1470 1474 1478 1485 1487 1488 1494 1502 1508 1515 1517 1515 1515 1517 1518 1516 1516 1515 1514 1514 1515 1515 1517 1517 1521 1530 1537 1538 1538 1543 1531 1498 1484 1490 1489 1487 1489 1488 1490 1490 1488 1487 1486 1487 1488 1488 1489 1489
1414 1416 1418 1420 1422 1424 1427 1431 1433 1433 1433 1433 1433 1434 1435 1436 1438 1440 1440 1441 1442 1443 1445 1445 1447 1450 1451 1454 1457 1461 1463 1467 1471 1470 1466 1466 1466 1466 1467 1468 1469 1473 1476 1480 1484 1487 1492 1496 1503 1511 1515 1515 1514 1516 1517 1517 1517 1516 1514 1513 1515 1516 1513 1514 1519 1523 1529 1532 1533 1541 1533 1498 1483 1491 1490 1488 1490 1488 1488 1489 1487 1487 1487 1487 1487 1488 1490 1490
1415 1416 1418 1420 1422 1423 1424 1427 1427 1429 1433 1434 1434 1435 1436 1436 1438 1439 1440 1440 1441 1442 1443 1445 1446 1447 1449 1452 1454 1456 1458 1461 1464 1465 1464 1465 1465 1465 1466 1467 1468 1470 1472 1473 1476 1481 1487 1491 1499 1510 1517 1516 1516 1517 1516 1515 1515 1512 1511 1514 1514 1515 1517 1520 1523 1524 1524 1524 1523 1527 1521 1495 1485 1491 1489 1488 1490 1487 1487 1488 1486 1487 1487 1487 1488 1488 1489 1490
1415 1417 1418 1420 1421 1421 1423 1424 1424 1427 1432 1434 1435 1436 1436 1437 1438 1439 1439 1440 1441 1441 1442 1444 1446 1446 1449 1451 1452 1454 1455 1456 1458 1461 1464 1465 1465 1465 1466 1467 1467 1467 1467 1469 1470 1474 1481 1487 1491 1499 1508 1510 1509 1506 1501 1502 1510 1512 1511 1514 1513 1513 1516 1516 1520 1524 1522 1521 1521 1517 1505 1489 1486 1489 1487 1487 1489 1486 1486 1487 1486 1487 1488 1487 1489 1489 1490 1491
1414 1417 1420 1421 1422 1422 1423 1425 1425 1428 1431 1433 1435 1436 1436 1437 1438 1438 1439 1440 1441 1441 1441 1443 1445 1446 1449 1450 1451 1454 1455 1455 1457 1458 1460 1463 1464 1465 1465 1466 1467 1467 1468 1469 1470 1473 1480 1485 1484 1485 1489 1489 1486 1487 1487 1490 1501 1507 1507 1510 1511 1511 1512 1512 1519 1520 1513 1516 1521 1511 1496 1488 1486 1487 1487 1486 1487 1487 1487 1487 1487 1487 1488 1488 1489 1490 1490 1490
1413 1416 1418 1420 1422 1424 1425 1425 1426 1428 1429 1430 1432 1433 1434 1436 1438 1439 1440 1440 1440 1441 1442 1443 1444 1444 1446 1448 1450 1452 1453 1455 1457 1457 1459 1462 1464 1466 1466 1466 1467 1467 1468 1469 1470 1473 1478 1481 1482 1481 1479 1478 1478 1482 1487 1487 1491 1496 1500 1505 1508 1509 1510 1511 1512 1506 1502 1513 1513 1499 1496 1495 1486 1485 1488 1485 1486 1488 1488 1487 1487 1487 1488 1489 1489 1489 1490 1490
1413 1414 1415 1416 1419 1421 1423 1424 1425 1427 1429 1430 1430 1431 1432 1435 1437 1438 1439 1440 1440 1440 1441 1443 1444 1443 1444 1444 1446 1449 1453 1456 1457 1457 1459 1462 1464 1465 1466 1467 1468 1467 1468 1470 1470 1472 1476 1477 1479 1481 1480 1478 1480 1485 1487 1485 1486 1488 1493 1499 1503 1506 1508 1507 1504 1497 1497 1505 1496 1485 1494 1495 1481 1481 1486 1483 1485 1486 1485 1486 1487 1488 1489 1488 1488 1488 1488 1489
1413 1414 1415 1416 1417 1418 1419 1420 1424 1428 1430 1431 1432 1433 1432 1434 1435 1435 1436 1439 1441 1440 1440 1441 1442 1442 1444 1444 1443 1446 1450 1452 1453 1454 1458 1461 1462 1463 1464 1466 1468 1467 1467 1470 1470 1471 1473 1473 1474 1479 1480 1477 1481 1486 1486 1484 1485 1488 1490 1495 1499 1502 1502 1499 1496 1491 1491 1494 1487 1485 1494 1489 1475 1478 1484 1482 1484 1485 1484 1487 1487 1487 1488 1487 1487 1487 1487 1488
1414 1414 1415 1417 1418 1418 1419 1420 1424 1427 1429 1431 1432 1432 1432 1432 1432 1433 1434 1436 1438 1439 1438 1439 1440 1441 1443 1445 1444 1445 1446 1446 1446 1449 1454 1457 1459 1461 1460 1460 1463 1467 1468 1468 1470 1471 1472 1472 1474 1478 1480 1478 1479 1484 1486 1486 1486 1487 1489 1494 1497 1499 1499 1496 1491 1488 1491 1495 1492 1492 1496 1486 1472 1476 1482 1481 1481 1483 1484 1485 1485 1486 1487 1486 1486 1486 1485 1486
1414 1415 1415 1417 1418 1419 1419 1420 1423 1426 1428 1429 1429 1429 1431 1431 1430 1431 1433 1432 1432 1434 1435 1436 1439 1442 1444 1445 1444 1445 1447 1446 1445 1447 1450 1452 1454 1455 1456 1456 1459 1464 1466 1467 1469 1470 1471 1474 1476 1478 1480 1478 1475 1480 1487 1490 1491 1491 1490 1491 1493 1494 1493 1491 1488 1488 1491 1494 1494 1496 1496 1482 1468 1472 1479 1477 1478 1482 1482 1483 1483 1484 1484 1483 1483 1482 1482 1483
1414 1415 1416 1417 1418 1419 1419 1419 1422 1424 1423 1423 1424 1425 1427 1428 1428 1430 1433 1432 1431 1432 1433 1435 1438 1441 1444 1445 1443 1443 1446 1447 1447 1448 1450 1451 1453 1454 1455 1456 1457 1459 1462 1466 1468 1469 1470 1471 1473 1477 1479 1476 1476 1482 1487 1490 1494 1493 1485 1479 1481 1485 1485 1486 1488 1488 1487 1487 1489 1490 1485 1471 1465 1472 1475 1473 1476 1479 1477 1477 1479 1479 1479 1479 1479 1479 1480 1481